Portada
METAR-TAF:

METAR-TAF

Aeropuertos :

Aghajari, Irán

latitud: 30-46N, longitud: 049-40E, altitud: 29 m

Observación

El informe se hizo hace 5 horas y 58 minutos, a las 17:00 UTC
Viento 8 kt del norte
Temperatura 37°C
Humedad 14%
Presión 1002 hPa
Visibilidad: 8000 m

METAR: OIAG 281700Z 35008KT 8000 NSC 37/05 Q1002

Hora: 03:28 (22:58 UTC)


TAF: falta

Observaciones y pronósticos meteorológicos de más de 4000 aeropuertos (mensajes METAR y TAF).

Los puntos amarillos y rojos representan las estaciones disponibles.

Ponga el ratón en el punto deseado para ver el nombre de la estación.

Haga clic para ver las observaciones y los pronósticos meteorológicos.

Para cambiar el mapa : haga clic en los botones verdes con una cruz de color negro para hacer un zoom, en el botón verde con un guión para alejar o en las flechas verdes para mapas adyacentes.


METAR-TAF: